SES-3

Last updated on Sun Jan 18 2026 00:02:46 GMT+0000 (Coordinated Universal Time)

1 37748U 11035A 26017.56346946 -.00000086 00000+0 00000+0 0 9991 2 37748 0.9367 84.8808 0003031 227.2098 264.7226 1.00271257 53089
UTC large
Height (km)
Speed (km/s)
/
Latitude / Longitude
Inclination (degrees)
Orbital Period (minutes)
Azimuth
Elevation
Range (km)
Doppler Factor

Next 0 passes for location: London (51.5072 / 0.1276)

Sorry there are no passes over London.